#timestamp,LO_Frequency,Hit,StdDev 
1528563615.8,286047000.2,N
1528563635.6,286047000.1,N
1528563655.5,286047000.3,N
1528563675.3,286046998.3,N
1528563695.2,286046998.3,N
1528563715.9,286046999.4,N
1528563735.7,286046996.5,Y
1528563755.6,286046999.3,P
1528563775.4,286047000.8,N
1528563795.2,286046999.9,N
1528563815.1,286047002.3,Y
1528563816.0,286047002.3,P
1528563835.8,286047002.0,N
1528563855.7,286047001.9,N
1528563875.5,286047002.1,N
1528563895.3,286047001.6,N
1528563915.2,286047001.5,N
1528563935.0,286047004.3,Y
1528563935.9,286047004.3,P
1528563955.8,286046999.8,N
1528563975.6,286047002.1,N
1528563995.4,286047002.7,N
1528564015.3,286047002.8,N
1528564035.1,286047002.3,N
1528564055.9,286047001.9,N
1528564075.7,286047002.4,N
1528564095.5,286046999.8,N
1528564115.4,286047001.4,N
1528564135.2,286047002.6,N
1528564155.1,286047000.3,N
1528564156.0,286047000.3,N
1528564175.8,286047002.8,N
1528564195.6,286047000.6,N
1528564215.5,286047000.8,N
1528564235.3,286047000.7,N
1528564255.1,286047001.1,N
1528564275.9,286047000.3,N
1528564295.7,286047000.2,N
1528564315.6,286047002.4,N
1528564335.4,286047002.3,N
1528564355.2,286047001.5,N
1528564375.1,286047001.3,N
1528564376.0,286047001.3,N
1528564395.8,286047004.0,Y
1528564415.7,286047000.1,P
1528564435.5,286047002.2,P
1528564455.3,286047002.0,N
1528564475.2,286047002.0,N
1528564495.0,286047002.3,N
1528564495.9,286047002.3,Y
1528564515.8,286046998.4,P
1528564535.6,286046998.7,N
1528564555.4,286046998.3,N
1528564575.3,286046998.3,N
1528564595.1,286046999.3,N
1528564615.8,286046998.8,N
1528564635.7,286046999.2,N
1528564655.5,286046999.6,N
1528564675.4,286046997.7,N
1528564695.2,286046997.4,N
1528564715.0,286046997.4,N
1528564715.9,286046997.4,N
1528564735.8,286046996.7,N
1528564755.6,286046997.2,N
1528564775.5,286046996.6,N
1528564795.3,286046996.9,N
1528564815.1,286046997.1,N
1528564835.9,286046997.7,N
1528564855.7,286046996.6,N
1528564875.5,286046999.2,N
1528564895.4,286046999.2,N
1528564915.2,286046999.0,N
1528564935.1,286046999.6,N
1528564936.0,286046999.6,N
1528564955.8,286046998.9,N
1528564975.6,286047001.1,N
1528564995.5,286046998.4,N
1528565015.3,286046996.9,N
1528565035.2,286046998.0,N
1528565055.9,286046996.7,N
1528565075.7,286046996.8,N
1528565095.6,286046997.0,N
1528565115.4,286046996.8,N
1528565135.3,286046997.7,N
1528565155.1,286046997.3,N
1528565156.0,286046997.3,N
1528565175.8,286046999.3,N
1528565195.7,286046998.8,N
1528565215.5,286046999.2,N
1528565235.3,286046996.8,N
1528565255.2,286046996.7,N
1528565275.0,286046996.9,N
1528565275.9,286046996.9,N
1528565295.8,286046996.5,N
1528565315.6,286046998.6,N
1528565335.4,286046999.1,N
1528565355.3,286046998.9,N
1528565375.1,286046998.6,N
1528565395.9,286047001.2,N
1528565415.7,286046999.6,N
1528565435.5,286046998.1,N
1528565455.4,286046998.8,N
1528565475.2,286046999.4,N
1528565495.0,286046999.5,N
1528565495.9,286046999.5,N
1528565515.8,286046996.6,N
1528565535.6,286046998.9,N
1528565555.5,286046997.1,N
1528565575.3,286046999.4,N
1528565595.1,286046999.6,N
1528565615.9,286046998.4,N
1528565635.7,286047000.4,N
1528565655.5,286047000.8,N
1528565675.4,286047001.0,N
1528565695.2,286047000.3,N
1528565715.0,286047000.6,N
1528565716.0,286047000.6,N
1528565735.8,286047000.7,N
1528565755.6,286047000.8,N
1528565775.5,286046998.2,N
1528565795.3,286046998.1,N
1528565815.1,286046999.3,N
1528565835.9,286046998.3,N
1528565855.7,286047001.2,N
1528565875.5,286046998.3,N
1528565895.4,286046998.7,N
1528565915.2,286046998.5,N
1528565935.1,286046998.6,N
1528565936.0,286046998.6,N
1528565955.8,286047000.8,N
1528565975.6,286046998.6,N
1528565995.5,286046998.5,N
1528566015.4,286046998.1,N
1528566035.2,286046996.9,N
1528566055.0,286046996.8,N
1528566055.9,286046996.8,N
1528566075.8,286046999.2,N
1528566095.1,286046998.7,N
1528566115.9,286046998.2,N
1528566135.7,286046998.9,N
1528566155.5,286046998.5,N
1528566175.4,286046998.7,N
1528566195.2,286046998.4,N
1528566215.1,286046998.3,N
1528566216.0,286046998.3,N
1528566235.8,286046998.1,N
1528566255.6,286047000.7,N
1528566275.5,286046998.1,N
1528566295.3,286046998.7,N
1528566315.2,286046999.5,N
1528566335.9,286046998.4,N
1528566355.7,286046998.6,N
1528566375.6,286046999.0,N
1528566395.4,286046998.6,N
1528566415.2,286046999.3,N
1528566435.1,286046998.2,N
1528566436.0,286046998.2,N
1528566455.8,286046998.2,N
1528566475.7,286047001.0,N
1528566495.5,286047001.2,N
1528566515.3,286046998.9,N
1528566535.2,286046998.3,N
1528566555.0,286047000.2,N
1528566555.9,286047000.2,N
1528566575.7,286047001.1,N
1528566595.6,286047000.9,N
1528566615.4,286047000.4,N
1528566635.3,286047000.7,N
1528566655.1,286046999.9,N
1528566656.0,286046999.9,N
1528566675.8,286047001.1,N
1528566695.7,286047001.1,N
1528566715.5,286046999.3,N
1528566735.4,286046999.2,N
1528566755.2,286046998.3,N
1528566775.0,286047000.6,N
1528566775.9,286047000.6,N
1528566795.8,286047000.5,N
1528566815.6,286047000.6,N
1528566835.4,286047000.6,N
1528566855.3,286047000.9,N
1528566875.1,286046998.1,N
1528566895.9,286046999.0,N
1528566915.7,286046996.8,Y
1528566935.5,286046996.9,P
1528566955.4,286046997.1,N
1528566975.2,286046997.1,N
1528566995.0,286046998.8,N
1528566995.9,286046998.8,N
1528567015.8,286046998.7,N
1528567035.6,286046998.4,N
1528567055.5,286047000.2,N
1528567075.3,286047002.3,N
1528567095.1,286047001.9,N
1528567115.9,286046999.8,N
1528567135.7,286047000.3,N
1528567155.5,286047000.8,N
1528567175.4,286046998.5,N
1528567195.2,286046999.0,N
